Current Version              Previous Version:    01  02  03  04  05  06  07  08  09  10  11  12  13  14  15  16  17  18  19  20  21  22  23  24  25  26  27  28  29  30  
   31  32  33  34  35  36  37  38  39  40  41  42  43  44  45  46  47  48  49  50  51  52  53  54  55  56  57  58  59  60  

[Printable]
730
ASUS44 KFWD 211915
RWRTX
NORTH TEXAS HOURLY WEATHER ROUNDUP
NATIONAL WEATHER SERVICE FORT WORTH TX
200 PM CDT TUE OCT 21 2014

NOTE: "FAIR" INDICATES FEW OR NO CLOUDS BELOW 12,000 FEET WITH NO
SIGNIFICANT WEATHER AND/OR OBSTRUCTIONS TO VISIBILITY.

TXZ118-119-212000-
DALLAS/FORT WORTH METROPLEX

CITY           SKY/WX    TMP DP  RH WIND       PRES   REMARKS
DFW AIRPORT    MOSUNNY   80  53  39 SE8       30.05F
DALLAS LOVE    MOSUNNY   80  56  43 SE10      30.05F
FTW MEACHAM    SUNNY     80  55  42 SE6       30.05F
DAL-EXECUTIVE  SUNNY     82  54  37 SE10      30.05F
FTW-ALLIANCE   MOSUNNY   81  50  33 SE9       30.05F
FTW-NAS-JRB    SUNNY     83  51  33 SE9       30.09F
FTW-SPINKS     SUNNY     81  52  36 E9        30.07F
ARLINGTON      SUNNY     81  47  30 E7        30.06F
GRAND PRAIRIE  SUNNY     81  54  39 MISG      30.07F
ADDISON        SUNNY     79  55  44 E5        30.06F
MESQUITE       SUNNY     81  55  41 SE7       30.07F
LANCASTER      SUNNY     78  53  40 SE8       30.07F
$$

TXZ091>094-102>105-117-120-121-131>134-212000-
NORTH CENTRAL TEXAS

CITY           SKY/WX    TMP DP  RH WIND       PRES   REMARKS
SHRMAN/DENISON SUNNY     80  61  52 S5        30.07F
GAINESVILLE    SUNNY     79  58  48 MISG      30.08F
BOWIE          SUNNY     80  55  42 S5        30.06F
BRIDGEPORT     SUNNY     81  56  42 SE9       30.07F
DECATUR        SUNNY     80  47  30 E12       30.07F
DENTON         SUNNY     80  55  42 E8        30.05F
MCKINNEY       SUNNY     78  58  49 S8        30.06F
GREENVILLE     SUNNY     81  55  41 CALM      30.07F
ROCKWALL       SUNNY     80  58  47 SE7       30.05F
TERRELL        SUNNY     80  58  46 CALM      30.07F
WAXAHACHIE     SUNNY     80  55  42 SE3       30.07F
CLEBURNE       SUNNY     81  54  39 VRB7      30.07F
GRANBURY       SUNNY     81  55  40 E8        30.06F
$$

TXZ083>090-098>101-113>116-127>130-139>142-154-155-212000-
WESTERN NORTH TEXAS

CITY           SKY/WX    TMP DP  RH WIND       PRES   REMARKS
WICHITA FALLS  SUNNY     81  55  40 SE13      30.04F
WF-KICKAPOO    SUNNY     82  51  34 E6        30.06F
VERNON         SUNNY     82  54  36 SE9       30.05F
ABILENE        SUNNY     78  52  40 VRB7G17   30.07F
ABILENE-DYESS  SUNNY     79  53  40 S8        30.05F
BRECKENRIDGE   MOSUNNY   82  51  35 SE3       30.05F HAZE
GRAHAM         SUNNY     81  53  37 S6        30.04F
MINERAL WELLS  SUNNY     79  55  43 E7        30.05F
STEPHENVILLE   MOSUNNY   79  54  42 SE5       30.09F
COMANCHE       MOSUNNY   77  57  50 SE5       30.07F
BROWNWOOD      MOSUNNY   77  54  44 SE8       30.06F
COLEMAN        MOSUNNY   79  57  47 E7        30.07F
BRADY          MOSUNNY   77  52  41 SE7       30.06F
$$

TXZ143>147-156>162-174-175-212000-
CENTRAL TEXAS

CITY           SKY/WX    TMP DP  RH WIND       PRES   REMARKS
WACO           SUNNY     80  55  42 E7        30.05F
WACO-TSTC      SUNNY     81  50  34 SE5       30.05F
WACO-MCGREGOR  SUNNY     81  55  41 E7        30.07F
HILLSBORO        N/A     81  48  32 SE8       30.06F
CORSICANA      SUNNY     78  55  44 E8        30.07F
MEXIA          SUNNY     79  54  41 E8        30.05F
HEARNE         SUNNY     79  52  39 NE5       30.05F
CAMERON        SUNNY     80  50  34 SE5       30.04F
TEMPLE         SUNNY     81  54  39 NE8       30.05F
KILLEEN        MOSUNNY   79  55  44 SE6       30.05F
KILLEEN-SKYLRK SUNNY     77  55  47 SE6       30.06F
FORT HOOD      SUNNY     82  57  42 VRB3      30.05F
GATESVILLE     SUNNY     79  55  44 CALM      30.08F
HAMILTON       SUNNY     80  54  40 SE12      30.07F
LAMPASAS       SUNNY     78  60  54 SE6       30.05F
$$

TXZ095>097-106>112-122>126-135>138-148>153-164>167-212000-
EAST TEXAS

CITY           SKY/WX    TMP DP  RH WIND       PRES   REMARKS
PARIS          SUNNY     77  55  47 E5        30.09F
SULPHUR SPRNGS SUNNY     80  58  46 E7        30.09F
MOUNT PLEASANT SUNNY     78  58  50 CALM      30.09F
MINEOLA        MOSUNNY   79  57  47 CALM      30.08F
TYLER          MOSUNNY   80  56  43 MISG      30.07F
LONGVIEW       SUNNY     80  60  50 VRB3      30.06F
MARSHALL       MOSUNNY   80  62  53 CALM      30.09F
ATHENS         SUNNY     77  54  44 CALM      30.06F
PALESTINE      SUNNY     79  59  50 E7        30.07F
JACKSONVILLE   SUNNY     78  57  48 E5        30.09F
HENDERSON      SUNNY     79  58  48 CALM      30.07F
NACOGDOCHES    SUNNY     79  59  50 SE7       30.06F
LUFKIN         SUNNY     82  58  43 NE8       30.05F
$$

SUPPLEMENTAL OBSERVATIONS (CENTRAL)

CITY           SKY/WX    TMP DP  RH WIND       PRES   REMARKS
LAKE TEXOMA      N/A     79  57  47 SE3         N/A
PAT MAYSE LAKE   N/A     75  59  57 S5          N/A
PALESTINE        N/A     81  59  47 E5          N/A
LAKE LIMESTONE   N/A     81  52  36 E7          N/A
MCGREGOR         N/A     81  55  41 E5          N/A
TEMPLE           N/A     79  54  41 E9          N/A
$$

SUPPLEMENTAL OBSERVATIONS (WEST)

CITY           SKY/WX    TMP DP  RH WIND       PRES   REMARKS
MILLERS CREEK    N/A     81  63  54 NE3G13      N/A
POSSUM KINGDOM   N/A     82  52  34 SE7         N/A
GRANBURY         N/A     81  54  39 E9          N/A
COMANCHE         N/A     79  59  50 SE8         N/A
HAMBY            N/A     81  52  36 S10         N/A
IVIE RESERVOIR   N/A     81  54  39 E8          N/A
COLORADO BEND    N/A     79  54  41 SE7         N/A
$$

SUPPLEMENTAL OBSERVATIONS (EAST)

CITY           SKY/WX    TMP DP  RH WIND       PRES   REMARKS
TEXARKANA        N/A     81  59  47 NE3         N/A
LINDEN           N/A     81  59  47 NW3         N/A
CADDO LAKE       N/A     81  59  47 E3          N/A
HENDERSON        N/A     79  57  47 E8          N/A
N SABINE NF      N/A    N/A N/A N/A MISG        N/A
$$

SUPPLEMENTAL OBSERVATIONS ARE A COLLECTION OF AUTOMATED INSTRUMENTS
THAT ARE MAINTAINED BY A VARIETY OF FEDERAL AND STATE AGENCIES.
CERTAIN ELEMENTS...SUCH AS HUMIDITY VALUES AND SUSTAINED WIND
SPEEDS...MAY BE APPROXIMATED.